METEOR 2-11 DEB, 42456

Orbit data source: Space-Track

METEOR 2-11 DEB, 42456 is space debris in LEO originally from a launch on Thu, 05 Jul 1984 UTC launched from the Plesetsk Missile And Space Complex (PKMTR). Debris objects in space refer to the collection of defunct objects orbiting the Earth. Examples of debris include non-operational satellites, rocket bodies, and fragments generated from explosions, collisions, or faulty payload assembly.

Loading next visibility...
Identifier
42456, 1984-072S
Orbit
LEO
Last TLE update
2 days ago
Origin
Manufacturer
Unknown
Mission
Spacecraft
Bus & Motor
Unknown
Mass
Unknown
Launch date (UTC)
1984-07-05 (41 years ago)
Launch vehicle
Unknown
Launch site
Plesetsk Missile And Space Complex (PKMTR)
Object type
Payload
Rocket body
Debris
Shape & HBR
Unknown
Radar Cross Section
Small (<0.1 m²)

Expand to show TLE details & history

TLE from 2 days ago
0 METEOR 2-11 DEB
1 42456U 84072S   25181.07044166  .00001180  00000-0  86815-3 0  9998
2 42456  82.5382 309.8071 0033325 293.6404  66.1265 13.94623513538552
Epoch: 2025-06-30T01:41Z
TLE epoch observation values (Epoch: 2025-06-30T01:41:26.159Z)
Latitude
-0°
Longitude
6.06258°
Altitude
905.622 km
Speed
7.404 km/s
True Right ascension
20h 39m 13s
True Declination
0° 00' 00"
Sunlit
Object was in full shadow at epoch
Visualization orbit readout
Latitude
-30.18578°
Longitude
-171.30854°
Altitude
918.345 km
Speed
7.394 km/s
Apparent Right ascension
06h 53m 52s
Apparent Declination
-39° 32' 54"
Sunlit
Object is in daylight
Visualization observer readout
Local Sidereal Time
16:19:25
Azimuth
258.062° W
Elevation
-60.54°
Doppler factor
1
Orbital elements
Apogee altitude
933.897 km
Perigee altitude
885.324 km
Semi-major axis
7,287.747 km
Eccentricity
0.00333
Inclination
82.5382°
RAAN
309.8071°
Arg. of periapsis
293.6404°
True anomaly
Unknown
Mean anomaly
66.1265°
Eccentric anomaly
Unknown
Mean motion
3.48862 °/min
Orbital period
103.19 mins
BSTAR
0.00086815
Loading maneuver chart data...
Loading SW <> Apogee altitude chart data...
Loading historical data...
Loading historical data...
Loading historical data...
Loading historical data...
Loading historical data...
Loading historical data...
Loading historical data...

METEOR 2-11 DEB Visibility forecast

Observer location: undefined°, undefined°

Span
Click to sort rows by Start time (UTC) header in descending order
Start Az.
Max El. time (UTC)
Max El. Az.
Max El.
End time (UTC)
End Az.
10 mins2025-07-02 08:53:59.600Z173.57° S2025-07-02 08:58:59.600Z87.014° E42.644°2025-07-02 09:03:59.600Z14.328° NNE
6 mins2025-07-02 10:40:59.600Z263.317° W2025-07-02 10:43:59.600Z297.812° NW16.212°2025-07-02 10:46:59.600Z329.174° NNW
9 mins2025-07-02 19:42:59.600Z10.535° NNE2025-07-02 19:46:59.600Z71.39° E36.325°2025-07-02 19:51:59.600Z147.852° SSE
7 mins2025-07-02 21:27:59.600Z311.62° NW2025-07-02 21:30:59.600Z273.128° WNW21.65°2025-07-02 21:34:59.600Z227.667° WSW
|